Notices

What's New in latest Release from April 7th, 2021:

- Updated Glossary, including Speed of Maximum Gust, and Total Hourly Precipitation

- Updated national and regional climate services offices contacts and prices information

- Addition of station inventory lists for 1981-2010, 1971-2000, and 1961-1990 Normals.

If you haven't already, please take our survey and provide feedback about our website: https://eccc.sondage-survey.ca/f/LanguageSelection.aspx?s=442ca660-fcf1-47c0-95a9-59707d6fd709

Hourly Data Report for December 10, 2018

CARBERRY CS
MANITOBA
Current Station Operator: ECCC - MSC

49°54'20.900" N
99°21'26.800" W
383.50 m
5010547
71170
WZE

Download Data

Hourly Data (December 2018)
Hourly Data Report for December 10, 2018
TIME
LST
Temp Definition
°C
Dew Point Definition
°C
Rel Hum Definition
%
Precip. Amount Definition
mm

Wind Dir Definition
10's deg

Wind Spd Definition
km/h
Visibility Definition
km
Stn Press Definition
kPa
Hmdx Definition


Wind Chill Definition


Weather Definition


00:00 -8.7 -11.2 82 0.0 25 22   97.11   -17 LegendNANA
01:00 -8.0 -10.6 82 0.0 25 20   97.03   -15 LegendNANA
02:00 -8.4 -10.8 83 0.0 25 19   96.93   -16 LegendNANA
03:00 -9.2 -11.6 83 0.0 26 17   96.95   -16 LegendNANA
04:00 -9.9 -12.0 85 0.0 26 23   96.91   -18 LegendNANA
05:00 -11.0 -12.9 86 0.0 26 19   96.88   -19 LegendNANA
06:00 -11.3 -13.2 86 0.0 25 15   96.87   -18 LegendNANA
07:00 -12.3 -14.1 87 0.0 25 11   96.89   -18 LegendNANA
08:00 -12.9 -14.9 85 0.0 26 14   96.93   -20 LegendNANA
09:00 -12.7 -15.4 80 0.0 25 11   96.95   -19 LegendNANA
10:00 -12.3 -16.3 72 0.0 25 8   96.97   -17 LegendNANA
11:00 -10.4 -14.8 70 0.0 26 9   96.98   -15 LegendNANA
12:00 -8.9 -13.4 70 0.0 26 14   96.99   -15 LegendNANA
13:00 -6.7 -12.9 61 0.0 29 3   96.94   -8 LegendNANA
14:00 -5.9 -12.6 59 0.0 25 3   96.91   -7 LegendNANA
15:00 -6.0 -12.0 62 0.0   0   96.88     LegendNANA
16:00 -7.1 -11.0 73 0.0   0   96.89     LegendNANA
17:00 -8.9 -12.6 74 0.0 21 9   96.88   -14 LegendNANA
18:00 -9.7 -13.1 76 0.0 24 6   96.92   -13 LegendNANA
19:00 -10.5 -13.4 80 0.0 23 6   96.88   -14 LegendNANA
20:00 -12.7 -14.6 86 0.0 18 7   96.87   -17 LegendNANA
21:00 -14.5 -16.4 86 0.0 16 4   96.86   -17 LegendNANA
22:00 -12.9 -14.6 87 0.0 20 8   96.82   -18 LegendNANA
23:00 -12.5 -14.1 88 0.0 19 7   96.81   -17 LegendNANA

Notes on Data Quality.

Legend

  • E = Estimated
  • M = Missing
  • NA = Not Available*
  • [empty] = Indicates an unobserved value
Date modified: